Location: Seattle
(47.6064°N, 122.3308°W)
Time: 05:00:03
(UTC-08:00)

S-56A Canister/Altair - Pass Details

Date: 26 November 2020
Orbit: 633 x 2499 km, 38.9° (Epoch: 23 January)

Event Time Altitude Azimuth Distance (km) Brightness Sun altitude
Rises 18:38:40 0° 206° (SSW) 5,676 12.4 -22.4°
Reaches altitude 10° 18:43:55 10° 193° (SSW) 4,362 11.6 -23.3°
Maximum altitude 18:51:26 21° 151° (SSE) 3,050 10.3 -24.5°
Enters shadow 18:53:09 20° 137° (SE) 2,981 10.2 -24.8°
Drops below altitude 10° 18:57:20 10° 107° (ESE) 3,324 - -25.5°
Sets 19:00:37 0° 91° (E) 4,005 - -26.1°
